Regional Weather Roundup
Issued by NWS Sioux Falls, SD

Home | Current Version | Previous Version | Graphics & Text | Print | Product List | Glossary On
Versions: 1 2 3 4 5 6 7 8 9 10 11 12 13 14 15 16 17 18 19 20 21 22 23 24 25 26 27 28 29 30 31 32 33 34 35 36 37 38 39 40 41 42 43 44 45 46 47 48 49 50
000
ASUS43 KFSD 251202
RWRFSD

WEATHER ROUNDUP FOR SE SOUTH DAKOTA/SW MINNESOTA/NW IOWA
NATIONAL WEATHER SERVICE SIOUX FALLS SD
700 AM CDT MON MAY 25 2015

NOTE: "FAIR" INDICATES FEW OR NO CLOUDS BELOW 12,000 FEET WITH NO
SIGNIFICANT WEATHER AND OR OBSTRUCTIONS TO VISIBILITY.


SDZ038>040-050-052>070-251300-
SOUTHEAST SOUTH DAKOTA

CITY           SKY/WX    TMP DP  RH WIND       PRES   REMARKS
BROOKINGS      CLOUDY    57  55  94 NW5       29.73R
CHAMBERLAIN    CLOUDY    56  56  99 CALM      29.76R FOG
6HR MIN TEMP:  55; 6HR MAX TEMP:  57;

HURON          CLOUDY    57  57 100 CALM      29.75R FOG
6HR MIN TEMP:  57; 6HR MAX TEMP:  58; 6HR PCP: TRACE;

MADISON        CLOUDY    55  55 100 CALM      29.74R FOG
MITCHELL       FOG       58  58 100 NW6       29.76R VSB 1/4
6HR MIN TEMP:  58; 6HR MAX TEMP:  59; 6HR PCP:  0.01;

SIOUX FALLS    CLOUDY    59  57  93 W6        29.74R
6HR MIN TEMP:  58; 6HR MAX TEMP:  59; 6HR PCP: TRACE;

WINNER         FOG       58  56  93 E5        29.76S VSB 1/4
YANKTON        CLOUDY    59  57  94 N5        29.73F VSB 1/2
$$

MNZ071-072-080-081-089-090-097-098-251300-
SOUTHWEST MINNESOTA

CITY           SKY/WX    TMP DP  RH WIND       PRES   REMARKS
FAIRMONT       CLOUDY    61  55  82 W9        29.71R
JACKSON        CLOUDY    59  59 100 W6        29.73R
LUVERNE        CLOUDY    59  55  88 W3        29.74R
MARSHALL       CLOUDY    57  54  88 N8        29.68F
6HR MIN TEMP:  57; 6HR MAX TEMP:  57; 6HR PCP:  0.05;

MONTEVIDEO     LGT RAIN  57  57 100 CALM      29.69F
REDWOOD FALLS  FOG       58  57  97 NW8       29.67S VSB 3/4
TRACY          CLOUDY    58  57  99 NW7       29.70S FOG
WINDOM         CLOUDY    57  55  94 W7        29.70S
WORTHINGTON    CLOUDY    57  54  88 W10       29.73R
$$

IAZ001>003-012>014-020>022-031-032-NEZ013-014-SDZ071-251300-
NORTHWEST IOWA

CITY           SKY/WX    TMP DP  RH WIND       PRES   REMARKS
DENISON        CLOUDY    61  61 100 SW8       29.77R
ESTHERVILLE    CLOUDY    59  58  96 W7        29.72R
SIOUX CITY     FOG       59  57  93 CALM      29.75S VSB<1/4
6HR MIN TEMP:  58; 6HR MAX TEMP:  61;

SPENCER        CLOUDY    61  60  97 W12       29.75R FOG
6HR MIN TEMP:  61; 6HR MAX TEMP:  61;

$$

ABBREVIATIONS USED IN REMARKS
   TC - TEMPERATURE IN CELSIUS
  WCI - WIND CHILL INDEX
   HX - HEAT INDEX
  VSB - VISIBILITY




USA.gov is the U.S. government's official web portal to all federal, state and local government web resources and services.